Flag for Australia Weather past 2 weeks in Perth, Western Australia, Australia

Now
63 °F

Partly sunny.


Feels Like: 63 °F
Forecast: 51 / 63 °F
Wind: 7 mph from East

Location: Belmont Perth Airport

Current Time: Aug 3, 2015 at 3:15:47 PM

Latest Report: Aug 3, 2015 at 2:30 PM


Visibility: N/A

Pressure: 30.48 "Hg

Humidity: 45%

Dew point: 41 °F

Location of PerthLocation

Historic Weather in Perth — Graph

°F

Perth temperature yesterday

Maximum temperature yesterday: 61 °F (at 1:30 PM)
Minimum temperature yesterday: 39 °F (at 1:00 AM)
Average temperature yesterday: 50 °F

Past Weeks' High & Low Weather Summary

 TemperatureHumidityPressure
High72 °F (Jul 31, 3:30 PM)100% (Jul 20, 2:30 AM)30.57 "Hg (Jul 20, 2:30 AM)
Low34 °F (Jul 24, 6:00 AM)35% (Jul 27, 1:00 PM)29.71 "Hg (Jul 20, 1:30 PM)
Average55 °F76%30.17 "Hg
* Reported Jul 19 2:00 PM — Aug 3 2:00 PM, Perth, Weather by CustomWeather, © 2015

Note: Actual official high and low records may vary slightly from our data, if they occured in-between our weather recording intervals... More about our weather records

Advertising

Perth weather history for previous 24 hours

 ConditionsComfort  
Time TempWeatherWind HumidityBarometerVisibility
2:00 PM
Mon, Aug 3
63 °FPartly sunny.8 mph42%30.48 "HgN/A
1:30 PM63 °FPartly sunny.13 mph45%30.48 "HgN/A
1:00 PM63 °FPartly sunny.9 mph45%30.51 "HgN/A
12:00 PM63 °FPassing clouds.9 mph42%30.54 "HgN/A
11:30 AM63 °FPassing clouds.8 mph42%30.54 "HgN/A
11:00 AM59 °FSunny.10 mph51%30.54 "Hg10 mi
10:30 AM57 °FSunny.6 mph59%30.57 "Hg10 mi
10:00 AM55 °FSunny.7 mph63%30.57 "Hg10 mi
9:30 AM54 °FSunny.7 mph67%30.57 "Hg10 mi
9:00 AM52 °FSunny.10 mph72%30.57 "Hg10 mi
8:30 AM50 °FSunny.10 mph71%30.57 "Hg10 mi
8:00 AM48 °FSunny.10 mph76%30.57 "Hg10 mi
7:30 AM46 °FSunny.13 mph76%30.54 "Hg10 mi
7:00 AM46 °FSunny.9 mph76%30.54 "Hg10 mi
6:30 AM46 °FSunny.6 mph82%30.54 "Hg10 mi
6:00 AM46 °FClear.8 mph82%30.51 "Hg10 mi
5:30 AM45 °FClear.8 mph81%30.51 "Hg10 mi
5:00 AM43 °FClear.6 mph87%30.51 "Hg10 mi
4:30 AM39 °FClear.3 mph100%30.51 "Hg10 mi
4:00 AM41 °FClear.No wind93%30.51 "Hg10 mi
3:30 AM41 °FClear.2 mph93%30.51 "Hg10 mi
3:00 AM41 °FClear.5 mph93%30.54 "Hg10 mi
2:30 AM41 °FClear.6 mph93%30.54 "Hg10 mi
2:00 AM43 °FClear.6 mph93%30.54 "Hg10 mi
1:30 AM41 °FClear.5 mph93%30.54 "Hg10 mi
1:00 AM43 °FClear.5 mph87%30.54 "Hg10 mi
12:30 AM45 °FClear.5 mph81%30.54 "Hg10 mi
12:00 AM48 °FClear.6 mph76%30.54 "Hg10 mi
11:30 PM
Sun, Aug 2
45 °FClear.7 mph87%30.54 "Hg10 mi
11:00 PM43 °FClear.7 mph93%30.54 "Hg10 mi
10:30 PM43 °FClear.6 mph93%30.54 "Hg10 mi
10:00 PM43 °FClear.5 mph93%30.54 "Hg10 mi
9:30 PM45 °FClear.6 mph87%30.54 "Hg10 mi
9:00 PM46 °FClear.7 mph82%30.54 "Hg10 mi
8:30 PM50 °FClear.6 mph71%30.54 "Hg10 mi
8:00 PM48 °FClear.7 mph82%30.54 "Hg10 mi
7:30 PM48 °FClear.7 mph82%30.51 "Hg10 mi
7:00 PM50 °FPassing clouds.8 mph76%30.51 "HgN/A
6:30 PM52 °FPassing clouds.8 mph72%30.51 "HgN/A
6:00 PM54 °FPassing clouds.7 mph63%30.51 "HgN/A
5:30 PM57 °FPassing clouds.8 mph55%30.48 "HgN/A
5:00 PM59 °FPassing clouds.10 mph48%30.48 "HgN/A
4:30 PM61 °FPassing clouds.12 mph45%30.48 "HgN/A
4:00 PM61 °FPassing clouds.12 mph42%30.45 "HgN/A
3:30 PM61 °FPassing clouds.14 mph45%30.45 "HgN/A
3:00 PM61 °FPassing clouds.16 mph42%30.45 "HgN/A
Weather by CustomWeather, © 2015

See weather overviewHow to use our weather pages